Regional Weather Roundup
Issued by NWS

Home | Current Version | Previous Version | Text Only | Print | Product List | Glossary Off
Versions: 1 2 3 4 5 6 7 8 9 10 11 12 13 14 15 16 17 18 19 20 21 22 23 24 25 26 27 28 29 30 31 32 33 34 35 36

000
ASUS45 KBOI 221310
RWRID
WEATHER ROUNDUP FOR IDAHO
NATIONAL WEATHER SERVICE BOISE ID
700 AM MDT WED OCT 22 2014

NOTE: "FAIR" INDICATES FEW OR NO CLOUDS BELOW 12000 FEET
WITH NO SIGNIFICANT WEATHER AND/OR OBSTRUCTIONS TO VISIBILITY

IDZ012-014-221400-
SOUTHWEST IDAHO


CITY           SKY/WX    TMP DP  RH WIND       PRES   REMARKS
BOISE          CLEAR     45  36  70 SE10      30.07S
CALDWELL       CLEAR     41  28  60 NW3       30.10R
MOUNTAIN HOME  PTCLDY    39  39 100 SE15      30.10R WCI  31
$$

IDZ016-017-221400-
SOUTHCENTRAL IDAHO


CITY           SKY/WX    TMP DP  RH WIND       PRES   REMARKS
BURLEY         CLEAR     31  27  85 E3        30.14S
JEROME         CLEAR     37  30  75 E10       30.14S WCI  30
TWIN FALLS     CLEAR     39  30  70 S10       30.13R WCI  32
$$

IDZ019>023-221400-
SOUTHEAST IDAHO


CITY           SKY/WX    TMP DP  RH WIND       PRES   REMARKS
IDAHO FALLS    CLEAR     35  29  78 CALM      30.16R
POCATELLO      CLEAR     25  24  96 N5        30.17R WCI  19
REXBURG        CLEAR     32  28  85 CALM      30.16R
$$

IDZ006-010-011-018-031-032-221400-
CENTRAL IDAHO MOUNTAINS


CITY           SKY/WX    TMP DP  RH WIND       PRES   REMARKS
MCCALL         FOG       33  33 100 CALM      30.08F VSB 1/2
HAILEY         CLEAR     32  27  80 NW7       30.16F WCI  26
STANLEY          N/A     28  27  96 CALM      30.17S
SALMON         PTCLDY   N/A N/A N/A MISG        N/A
CHALLIS        MOCLDY    31  29  92 CALM      30.15S
$$

IDZ002-004-006-007-026-221400-
NORTHERN IDAHO


CITY           SKY/WX    TMP DP  RH WIND       PRES   REMARKS
LEWISTON       PTCLDY    45  41  86 E5        29.97F
LOWELL           N/A     44  41  89 CALM      30.08F
COEUR D`ALENE  MOCLDY    37  34  87 NE3       29.94F
MULLAN PASS    PTCLDY    33  32  96 S8G18     29.98F FOG     WCI  26
$$



USA.gov is the U.S. government's official web portal to all federal, state and local government web resources and services.